www.pogodaiklimat.ru

Погода и климат >> Архив погоды >> Россия >> Забайкальский край >> Кыра


АРХИВ ПОГОДЫ в Кыре

Время (UTC), дата Ветер
(напр.,м/с)
 
Видим.   Явления Облачность Т
(С)
Тd
(С)
f
(%)
Тe
(С)
Тes
(С)
Комфортность P
(гПа)
Po
(гПа)
Тmin
(С)
Tmax
(С)
R
(мм)
R24
(мм)
S
(см)
06 13.05 С 1 50 км 9/0
[Ac trans Cc]
+18.4 -12.3 11 +19 +32 опасность
простуды
995.2 895.8
09 13.05 СВ 4 50 км 9/3 1000 м
[Cu hum Ac trans Cs]
+20.4 -11.2 11 +20 +21 993.3 894.7
12 13.05 В 4
{10}
50 км 8/4 1000 м
[Cb cap Ac trans Ci sp]
+14.5 -12.0 15 +14 +14 997.5 896.6 +20.9
15 13.05 В 2 н/о 4/0
[Ac lent Ci fib]
+7.7 -3.3 46 +6 +6 1002.9 899.2
18 13.05 С 2 н/о 3/0
[Ci fib]
+1.2 -4.5 66 -2 -2 1006.0 899.7
21 13.05 СВ 1 50 км 3/0
[Ac lent]
-2.9 -6.1 79 -5 -5 1007.0 899.1
00 14.05 штиль 0 50 км 8/0
[Ac trans Ci]
+5.2 -4.1 51 +5 +10 1004.0 899.3 -3.4
03 14.05 В 3 50 км 8/0
[Ac trans Ci]
+15.2 -3.9 27 +15 +24 997.8 897.2
06 14.05 ЮВ 5
{10}
50 км 8/3 1000 м
[Cu med, cong Ac trans Ci]
+20.8 -5.4 17 +20 +24 992.5 894.2 30
09 14.05 В 6-10
{13}
50 км 8/6 1000 м
[Cb cap Ac trans]
+21.0 -4.4 18 +20 +21 988.3 890.5
12 14.05 В 7-11
{23}
50 км {метель} 9/8 1000 м
[Cb cap Ac trans]
+18.1 -1.8 26 +17 +17 990.0 891.1 +22.4
15 14.05 СВ 2
{12}
н/о 8/0
[Ac trans Cs]
+12.7 +1.2 45 +12 +12 994.2 893.2
18 14.05 С 2 н/о 9/3 1000 м
[Cb cap Ac trans Cs]
+9.3 +2.0 60 +8 +8 994.3 892.2
21 14.05 СЗ 2 50 км 9/4 1000 м
[Cb cap Ac trans]
+7.8 0.0 58 +6 +6 994.5 891.8
00 15.05 СЗ 3 50 км в посл. час ливневой дождь 9/4 1000 м
[Cb cap Ac trans]
+5.5 +1.1 73 +2 +4 992.7 889.4 +5.5 0.4
03 15.05 СЗ 3 4000 м слаб. дождь 10/6 1000 м
[Sc Ac und]
+2.9 0.0 81 -1 +1 993.8 889.5 +2.4
06 15.05 СЗ 5-10
{10}
50 км {дождь} 10/6 1000 м
[Sc Ac und]
+3.2 -1.2 73 -2 -1 992.2 888.1
09 15.05 З 3
{11}
4000 м слаб. дождь 10/6 1000 м
[Sc Ac und]
+3.2 -1.1 73 -1 0 994.2 889.9
12 15.05 З 4 50 км {дождь} 9/4 1000 м
[Cb cap Ac trans]
+4.9 -1.7 62 +1 +1 995.1 891.3 +5.5 3
15 15.05 З 6-12
{14}
н/о 8/3 1000 м
[Cb cap Ac trans Ci fib]
+6.1 -7.7 36 +2 +2 995.3 891.8
18 15.05 З 5-10
{15}
н/о 6/0
[Ac trans Ci fib]
+3.8 -9.1 38 -0 -0 998.1 893.5
21 15.05 З 3
{10}
50 км 6/3 1000 м
[Sc Ci fib]
+2.6 -9.1 42 -1 -1 1000.9 895.6
00 16.05 З 5
{10}
50 км 3/3 1000 м
[Sc Ci fib]
+7.1 -11.2 26 +4 +6 999.7 896.1 +2.1
03 16.05 СЗ 6-11
{14}
50 км 1/1 1000 м
[Cu hum]
+10.8 -13.7 16 +8 +14 998.5 896.2
06 16.05 З 5-10
{13}
50 км 4/3 1000 м
[Cu hum Ci fib]
+13.1 -13.7 14 +12 +17 997.6 896.2
09 16.05 СЗ 5-11
{13}
50 км 3/1 1000 м
[Cu hum Ci fib]
+13.5 -14.0 13 +12 +15 998.3 896.9
12 16.05 СЗ 3
{11}
50 км 8/0
[Ac trans Ci fib]
+10.1 -13.7 17 +9 +9 1001.0 898.2 +13.7
15 16.05 С 3 н/о 1/0
[Ci fib]
+6.4 -14.0 22 +4 +4 1004.0 899.7
18 16.05 З 3 н/о 3/0
[Ac lent]
+4.1 -12.8 28 +1 +1 1006.4 901.0
21 16.05 З 3 50 км 4/3 1000 м
[Sc Ci fib]
+1.2 -11.1 39 -2 -2 1008.2 901.6
00 17.05 З 6
{10}
50 км 4/3 1000 м
[Cu hum Ci]
+6.2 -11.5 27 +3 +4 1006.6 901.9 +0.2
03 17.05 СЗ 9-16
{16}
50 км 4/3 1000 м
[Cu hum Ci fib]
+9.5 -13.2 19 +6 +7 1005.0 901.7
06 17.05 СЗ 8-14
{16}
50 км 3/3 1000 м
[Cu hum]
+11.4 -12.9 17 +9 +11 1004.6 901.9
09 17.05 СЗ 7-13
{19}
50 км 3/3 1000 м
[Cu hum]
+10.7 -14.1 16 +8 +9 1005.9 902.8
12 17.05 СЗ 5-10
{13}
50 км 3/3 1000 м
[Cu hum]
+6.7 -8.9 32 +3 +3 1010.0 905.2 +11.4
15 17.05 З 2
{10}
н/о ясно +2.2 -7.9 47 -0 -0 1013.1 906.4
18 17.05 З 5-12
{12}
н/о ясно +2.4 -16.0 24 -2 -2 1013.7 906.9
21 17.05 З 5
{12}
50 км ясно +1.6 -15.1 28 -3 -3 1014.2 907.0
00 18.05 З 6-12
{16}
50 км ясно +5.6 -13.1 25 +2 +4 1012.9 907.3 -0.5
03 18.05 З 6-11
{13}
50 км 3/3 1000 м
[Cu hum]
+9.6 -14.1 17 +7 +11 1011.2 907.2
06 18.05 СЗ 6-12
{14}
50 км 3/3 1000 м
[Cu hum]
+11.9 -15.1 14 +10 +14 1009.8 906.8
09 18.05 СЗ 5
{14}
50 км 4/4 1000 м
[Cu med, cong]
+11.4 -15.0 14 +10 +11 1009.7 906.7
12 18.05 СЗ 5
{11}
50 км 3/1 1000 м
[Cu hum Ac lent]
+7.0 -10.3 28 +4 +4 1013.8 908.6 +12.5
15 18.05 З 2 н/о 3/3 1000 м
[Sc Ci fib]
+1.4 -6.9 54 -1 -1 1017.6 910.1
18 18.05 З 3 н/о 3/0
[Ci fib]
+1.2 -8.7 48 -2 -2 1016.7 909.2
21 18.05 З 2 50 км 4/3 1000 м
[Sc Ci fib]
-0.8 -8.2 57 -4 -4 1016.1 907.9
00 19.05 СЗ 5-11
{11}
50 км 6/3 1000 м
[Sc Ac trans Ci fib]
+5.5 -6.8 41 +2 +3 1013.1 907.5 -0.9
03 19.05 С 5
{12}
50 км 8/4 1000 м
[Cu med, cong Ac trans]
+8.4 -6.6 34 +6 +8 1012.0 907.6
06 19.05 СЗ 6-12
{12}
50 км 8/4 1000 м
[Cb cap Ac trans Ci fib]
+8.7 -6.4 34 +6 +8 1012.1 907.8
09 19.05 С 6-13
{15}
50 км 8/5 1000 м
[Cb cap Ac trans]
+8.2 -3.9 42 +5 +6 1013.6 909.0
12 19.05 С 2
{13}
50 км 9/3 1000 м
[Cb cap Ac trans]
+6.8 -1.7 55 +5 +5 1014.9 909.7 +9.1
15 19.05 З 2 н/о 3/3 1000 м
[Sc]
+5.8 -3.4 52 +4 +4 1015.9 910.2
18 19.05 З 3 н/о ясно +1.6 -2.8 73 -2 -2 1016.7 909.4
21 19.05 ЮЗ 1 50 км 3/0
[Ac lent Ci fib]
-2.5 -5.5 80 -5 -5 1018.1 909.1
00 20.05 СЗ 4 50 км 3/0
[Ac lent]
+8.0 -6.5 35 +6 +8 1013.6 908.9 -3.1
03 20.05 СЗ 5
{11}
50 км 1/1 1000 м
[Cu hum]
+12.8 -6.5 25 +11 +18 1010.1 907.4

 

Местоположение метеостанции Кыра (Забайкальский край, Россия): широта 49.57 долгота 111.90 высота над уровнем моря 908 м.

В архиве по умолчанию представлена погода в Кыре за последнюю неделю. Архивные данные за месяц целиком и за предыдущие месяцы, начиная с января 2011 года, Вы можете получить, выбрав интересующий диапазон дат из раскрывающегося списка и нажав кнопку "Ввод!".


*Определитесь, кто Вы:
робот инопланетянин человек

Внимание! Время в таблицах - всемирное. Для получения местного времени необходимо прибавить поправку, которая равна 9 ч.

Смотрите также архив погоды в соседних городах и на ближайших метеорологических станциях:

Погода в Мангуте (Забайкальский край, Россия) (52 км)
Погода в Букукуне (Забайкальский край, Россия) (59 км)
Погода в Татаале (Монголия) (87 км)
Погода в Акше (Забайкальский край, Россия) (121 км)
Погода в Биндэре (Монголия) (142 км)
Погода в Дульдурге (Забайкальский край, Россия) (168 км)
Погода в Черемхово (Забайкальский край, Россия) (171 км)
Погода в Дашбалбаре (Монголия) (180 км)
Погода в Баян-Ову (Монголия) (200 км)
Погода в Улетах (Забайкальский край, Россия) (201 км)

Пояснения к столбцам:

Ветер - указаны скорость ветра в м/с - средняя за 10 мин, порывы в срок и между сроками (в фигурных скобках) и направление, откуда дует ветер: С - северный, СВ - северо-восточный, В - восточный, ЮВ - юго-восточный, Ю - южный, ЮЗ - юго-западный, З - западный, СЗ - северо-западный.
Видимость - горизонтальная дальность видимости в метрах или километрах. При видимости от 1 до 10 км при отсутствии осадков обычно наблюдается дымка, при ухудшении видимости до 1 км и менее - туман. В сухую погоду видимость может ухудшаться дымом, пылью или мглою.
Явления - указаны атмосферные явления, наблюдавшиеся в срок или в последний час перед сроком; фигурными скобками обозначены явления, наблюдавшиеся между сроками (за 1-3 часа до срока); квадратными скобками обозначены град или гололедные отложения с указанием их диаметра в мм.
Облачность - указаны через наклонную черту общая и нижняя облачность в баллах и высота нижней границы облаков в метрах; квадратными скобками обозначены формы облаков: Ci - перистые, Cs - перисто-слоистые, Cc - перисто-кучевые, Ac - высококучевые, As - высокослоистые, Sc - слоисто-кучевые, Ns - слоисто-дождевые, Cu - кучевые, Cb - кучево-дождевые. Подробнее классификацию облаков см. в Атласе облаков (PDF).
T - Температура воздуха - температура, измеренная на высоте 2 м над землей.
Td - Температура точки росы - температура, при понижении до которой содержащийся в воздухе водяной пар достигнет насыщения.
f - Относительная влажность воздуха - влажноcть воздуха, измеренная на высоте 2 м над землей.
Te - Эффективная температура - температура, которую ощущает одетый по сезону человек в тени. Характеристика душности погоды. При расчете учитывается влияние влажности воздуха и скорости ветра на теплоощущения человека.
Tes - Эффективная температура на солнце - температура, которую ощущает человек, с поправкой на солнечный нагрев. Характеристика знойности погоды. Зависит от высоты солнца над горизонтом, облачности и скорости ветра. Ночью, в пасмурную погоду, а также при ветре 12 м/с и более поправка равна нулю.
P - Атмосферное давление - приведенное к уровню моря атмосферное давление.
Po - Атмосферное давление - измеренное на уровне метеостанции атмосферное давление.
Tmin - Минимальная температура - минимум температуры воздуха на высоте 2 м над землей.
Tmax - Максимальная температура - максимум температуры воздуха на высоте 2 м над землей.
R - Количество осадков - Количество выпавших осадков за период времени, мм. При наведении курсора мыши на число - период времени, за который выпало указанное количество осадков.
R24 - Количество осадков - Количество выпавших осадков за 24 часа, мм.
S - Снежный покров - Высота снежного покрова, см. При наведении курсора мыши на число - состояние снежного покрова и степень покрытия местности в баллах.